{"data":{"norad_id":66880,"epoch":"2026-05-24T22:59:46.232736Z","epoch_age_seconds":72450,"freshness":"FRESH","line1":"1 66880U 25283C   26144.95817399  .00013816  00000+0  47759-3 0  9999","line2":"2 66880  53.1599  29.7346 0000853  86.4118 273.6980 15.30208094 27520","mean_motion":15.30208094,"eccentricity":8.53e-5,"inclination_deg":53.1599,"raan_deg":29.7346,"arg_perigee_deg":86.4118,"mean_anomaly_deg":273.698,"bstar":0.00047759,"rev_number":2752,"period_min":94.104847938414,"perigee_km":474.60631343074,"apogee_km":475.77549117087,"semimajor_km":6853.3279023008,"source":"CELESTRAK","updated_at":"2026-05-25T13:38:21.378210Z"}}